TimeCDT,TemperatureF,Dew PointF,Humidity,Sea Level PressureIn,VisibilityMPH,Wind Direction,Wind SpeedMPH,Gust SpeedMPH,PrecipitationIn,Events,Conditions,WindDirDegrees,DateUTC
12:53 AM,30.0,23.0,75,30.35,10.0,NNE,13.8,-,N/A,,Clear,20,2013-10-28 05:53:00
1:53 AM,28.9,21.0,72,30.38,10.0,NNE,12.7,-,N/A,,Clear,20,2013-10-28 06:53:00
2:53 AM,27.0,19.9,75,30.41,10.0,North,11.5,-,N/A,,Clear,10,2013-10-28 07:53:00
3:53 AM,26.1,19.0,75,30.45,10.0,North,11.5,-,N/A,,Clear,10,2013-10-28 08:53:00
4:53 AM,25.0,19.0,78,30.47,10.0,NNE,9.2,-,N/A,,Clear,20,2013-10-28 09:53:00
5:53 AM,24.1,18.0,77,30.50,10.0,NNE,11.5,-,N/A,,Clear,20,2013-10-28 10:53:00
6:53 AM,23.0,17.1,78,30.52,10.0,North,9.2,-,N/A,,Clear,10,2013-10-28 11:53:00
7:53 AM,21.9,17.1,82,30.54,10.0,NNE,10.4,-,N/A,,Clear,20,2013-10-28 12:53:00
8:53 AM,23.0,17.1,78,30.56,10.0,NNE,10.4,-,N/A,,Clear,30,2013-10-28 13:53:00
9:53 AM,28.0,18.0,66,30.57,10.0,NNE,10.4,-,N/A,,Clear,30,2013-10-28 14:53:00
10:53 AM,30.0,19.0,64,30.58,10.0,NE,11.5,-,N/A,,Clear,40,2013-10-28 15:53:00
11:53 AM,32.0,19.0,59,30.59,10.0,NE,9.2,-,N/A,,Clear,50,2013-10-28 16:53:00
12:53 PM,35.1,19.0,52,30.58,10.0,NNE,9.2,-,N/A,,Partly Cloudy,30,2013-10-28 17:53:00
1:53 PM,37.0,18.0,46,30.55,10.0,NNE,11.5,18.4,N/A,,Clear,30,2013-10-28 18:53:00
2:53 PM,37.0,17.1,44,30.52,10.0,NNE,9.2,-,N/A,,Clear,30,2013-10-28 19:53:00
3:53 PM,37.0,15.1,41,30.51,10.0,NE,11.5,-,N/A,,Clear,40,2013-10-28 20:53:00
4:53 PM,37.0,16.0,42,30.51,10.0,NNE,10.4,-,N/A,,Clear,30,2013-10-28 21:53:00
5:53 PM,35.1,17.1,48,30.50,10.0,NNE,6.9,-,N/A,,Clear,20,2013-10-28 22:53:00
6:53 PM,30.0,17.1,59,30.51,8.0,North,8.1,-,N/A,,Clear,10,2013-10-28 23:53:00
7:53 PM,30.0,17.1,59,30.51,10.0,NNE,9.2,-,N/A,,Clear,20,2013-10-29 00:53:00
8:53 PM,28.0,16.0,61,30.51,10.0,NNE,9.2,-,N/A,,Clear,20,2013-10-29 01:53:00
9:53 PM,27.0,16.0,63,30.50,10.0,NNE,11.5,-,N/A,,Clear,30,2013-10-29 02:53:00
10:53 PM,26.1,16.0,66,30.51,10.0,NNE,9.2,-,N/A,,Clear,30,2013-10-29 03:53:00
11:53 PM,26.1,17.1,69,30.51,10.0,NNE,6.9,-,N/A,,Clear,30,2013-10-29 04:53:00